User: anonymous   Login
Location: CNYAC Observatory
(43.2150°N, 74.9500°W)
Time: 15:26:23
(UTC-05:00)
Language:

Meteor 1-22 Rocket - Orbit

View from above orbital plane
View from above orbital plane
View from above satellite
View from above satellite

Ground track
Ground track

The orbit data is extracted from the following two-line orbital elements,

1  8294U 75087B   18021.57352654 -.00000004 +00000-0 -98440-5 0  9995
2  8294 081.2159 169.6879 0106444 146.0827 214.7210 14.08608849175349
Epoch (UTC): 21 January 2018 13:45:52
Eccentricity: 0.0106444
inclination: 81.2159°
perigee height: 787 km
apogee height: 941 km
right ascension of ascending node: 169.6879°
argument of perigee: 146.0827°
revolutions per day: 14.08608849
mean anomaly at epoch: 214.7210°
orbit number at epoch: 17534

The dashed part of the orbit path shows where the satellite is in the earth's shadow,  

DLR